SCP
0 0 0 0 0 0 0 0 0 0 0 0 0 0 0 0 0 0 0 0 0 0 0 0 0 0 0 0 0 0 0 0 0 0 0 0 0 0 0 0 0 0 0
0 0 0 0 0 0 0 0 0 0 0 0 0 0 0 0 0 0 0 0 0 0 0 0 0 0 0 0 0 0 0 0 0 0 0 0 0 0 0 0 0 0 0
0 0 0 0 0 0 0 0 0 0 0 0 0 0 0 0 0 0 0 0 0 0 0 0 0 0 0 0 0 0 0 0 0 0 0 0 0 0 0 0 0 0 0
0 0 0 0 0 0 0 0 0 0 0 0 0 0 0 0 0 0 0 0 0 0 0 0 0 0 0 0 0 0 0 0 0 0 0 0 0 0 0 0 0 0 0
0 0 0 0 0 0 0 0 0 0 0 0 0 0 0 0 0 0 0 0 0 0 0 0 0 0 0 0 0 0 0 0 0 1 0 0 0 0 0 0 0 0 0
0 0 0 0 0 0 0 0 0 0 0 0 0 0 0 0 0 0 0 0 0 0 0 0 0 0 0 0 0 0 0 0 0 0 0 0 0 0 0 0 0 0 0
0 0 0 0 0 0 0 0 0 0 0 0 0 0 0 0 0 0 0 0 0 0 0 0 0 0 0 0 0 0 0 0 0 0 0 0 0 0 0 0 0 0 0
0 0 0 0 0 0 0 0 0 0 0 0 0 0 0 0 0 0 0 0 0 0 0 0 0 0 0 0 0 0 0 0 0 0 0 0 -0 0 0 0 0 0 0
0 0 0 0 0 0 0 0 0 0 0 0 0 0 0 0 0 0 0 0 0 0 0 0 0 0 0 0 0 0 0 0 0 0 0 0 0 0 0 0 0 0 0
-0 0 0 0 0 0 0 0 0 0 0 0 0 0 0 0 0 0 0 0 0 0 0 0 0 -0 0 0 0 0 0 0 0 0 0 0 0 0 0 -0 0 0 0
0 -0 -0 0 0 0 0 0 0 0 0 0 0 0 0 0 0 0 0 0 0 -0 0 0 -0 -0 -0 0 0 0 0 0 0 0 0 0 0 0 0 0 -0 -0 0
0 -0 -0 -0 0 0 0 0 0 0 0 0 0 0 0 0 0 0 0 0 0 0 -0 0 0 0 -0 -0 0 0 0 0 0 0 0 0 0 0 0 0 0 0 0
0 0 0 0 0 0 0 0 0 0 0 0 0 0 0 0 0 0 -0 -0 -0 -0 -0 -0 -0 0 -0 -0 -0 0 0 0 0 0 0 0 0 -0 0 0 0 0 0
0 0 0 0 0 0 0 0 0 0 0 0 0 0 0 0 0 0 0 -0 -0 -0 -0 -0 -0 -0 0 0 -0 0 0 0 0 0 0 0 0 -0 0 0 0 0 0
0 0 0 0 0 0 0 0 0 0 0 0 0 0 0 0 0 0 0 0 -0 -0 -0 -0 -0 -0 -0 -0 -0 0 0 0 0 0 0 0 0 0 0 0 0 0 0
-0 0 0 0 0 0 0 0 0 0 0 0 0 0 0 0 0 0 0 0 0 0 0 0 -0 -0 -0 -0 -0 0 0 0 0 0 0 0 0 0 0 0 0 0 0
-0 -0 0 0 0 0 0 0 0 0 0 0 0 0 0 0 0 0 0 0 0 0 0 0 0 0 0 0 -0 -0 0 0 0 0 0 0 0 0 0 0 0 0 0
-0 0 0 0 0 0 0 0 0 0 0 0 0 0 0 0 0 0 0 0 0 0 0 0 0 0 0 0 0 0 0 0 -0 -0 -0 -0 0 0 0 0 0 0 0
-0 0 0 0 0 0 0 0 0 0 0 0 0 0 0 0 0 0 0 0 0 0 0 0 0 -0 -0 -0 -0 -0 -0 0 0 0 0 0 0 0 0 0 0 0 0
-0 0 0 0 0 0 0 0 0 0 0 0 0 0 0 0 0 0 0 0 0 0 0 0 0 0 0 -0 -0 0 0 0 0 0 -0 -0 0 -0 0 0 0 0 0
-0 0 0 0 0 0 0 0 0 0 0 0 0 0 0 0 0 0 0 0 0 0 0 0 0 0 0 0 -0 -0 0 0 -0 -0 -0 0 0 0 0 0 0 0 0
-0 0 0 0 0 0 0 0 0 0 0 0 0 0 0 0 0 0 0 0 0 0 0 0 0 0 0 0 0 -0 -0 0 -0 -0 -0 0 0 0 0 0 0 0 0
0 0 0 0 0 0 0 0 0 0 0 0 0 0 0 0 0 0 0 0 0 0 0 0 0 0 0 0 0 0 -0 -0 -0 0 0 0 0 0 0 0 0 0 0
-0 0 0 0 0 0 0 0 0 0 0 0 0 0 0 0 0 0 0 0 0 0 0 0 0 0 -0 -0 -0 -0 -0 -0 -0 0 0 0 0 0 0 0 0 0 0
0 0 0 0 0 0 0 0 0 0 0 0 0 0 0 0 0 0 0 0 0 0 0 0 0 0 -0 0 0 0 0 0 0 0 0 0 0 0 0 0 0 0 0
0 0 0 0 0 0 0 0 0 0 0 0 0 0 0 0 0 0 0 0 0 0 0 0 0 0 0 0 0 0 0 0 0 0 0 0 0 0 0 0 0 0 0
Wind_Speed_500mb
24 31 38 42 44 43 41 44 48 52 62 70 68 62 55 49 47 46 46 46 46 44 45 50 45 39 47 54 52 52 53 54 48 47 47 53 64 63 65 72 75 93 97
10 20 29 35 36 36 39 43 48 56 63 65 60 56 54 52 52 49 48 47 48 46 43 43 44 41 49 51 51 47 49 51 48 41 42 36 38 60 65 77 81 88 96
9 16 25 29 32 35 37 44 53 61 62 59 55 52 51 50 49 49 49 47 49 42 40 38 36 44 44 47 43 41 45 50 48 44 48 22 32 38 52 67 65 78 88
4 11 18 23 28 33 41 50 58 58 54 50 49 49 52 54 49 47 47 49 47 41 31 29 35 40 43 42 40 40 36 44 48 43 53 64 18 23 25 47 63 66 70
11 16 20 25 31 37 48 53 52 48 45 44 44 46 49 49 49 47 46 45 46 40 34 37 36 39 43 41 41 43 44 39 45 45 48 53 61 65 24 30 50 57 58
19 22 25 31 38 44 45 44 44 41 39 41 42 44 46 48 48 46 46 42 43 41 35 38 39 39 38 37 43 42 43 44 43 50 40 42 53 56 35 33 62 64 60
27 30 34 36 38 37 36 37 38 35 36 38 38 40 41 43 44 43 44 44 41 38 32 32 34 37 33 40 40 43 40 42 37 41 42 45 43 47 18 41 52 61 48
33 31 32 33 32 32 33 33 34 32 33 34 35 35 36 38 39 39 39 39 39 36 32 31 33 38 36 32 36 40 41 41 39 35 37 33 29 38 38 22 47 38 49
34 30 26 28 28 29 29 31 30 31 33 33 32 29 29 31 35 34 34 33 31 30 27 28 32 34 41 44 37 41 45 39 36 39 27 20 19 24 25 38 22 21 31
29 25 24 24 24 25 25 26 29 33 33 31 32 32 30 28 29 32 31 29 23 23 27 30 34 36 39 41 49 46 45 51 38 42 47 46 38 25 21 16 31 13 20
27 23 21 22 22 22 24 25 26 27 27 28 28 28 25 23 25 27 28 27 22 23 26 31 32 32 34 36 33 36 39 48 41 35 37 41 46 43 45 17 29 32 17
27 25 23 21 19 18 19 21 23 24 27 27 23 21 21 17 19 19 23 25 24 24 29 28 29 32 28 23 23 27 34 30 29 29 32 33 28 29 31 31 26 33 24
29 26 22 20 16 14 15 16 18 22 26 23 19 17 18 17 16 15 18 20 23 27 32 33 31 28 25 24 24 25 32 33 29 29 32 32 30 29 31 35 26 20 30
31 26 21 17 12 10 11 13 18 24 26 22 18 16 17 15 14 15 15 16 18 20 22 21 20 20 18 18 21 18 23 27 30 32 32 26 29 24 23 26 26 31 38
30 25 19 13 9 7 8 12 17 21 22 21 20 22 22 20 18 17 16 17 17 19 19 18 16 14 11 9 9 12 21 25 26 26 24 24 22 20 22 31 34 40 46
27 23 19 12 7 4 6 9 13 15 18 21 22 25 28 29 27 26 24 23 22 21 20 18 19 16 16 14 10 7 6 13 14 18 17 11 24 26 27 29 32 29 24
17 17 16 11 6 4 3 6 11 16 19 22 24 27 28 28 28 28 28 28 30 29 29 30 30 31 28 24 28 28 26 26 31 28 30 29 26 25 23 19 15 16 23
17 15 14 13 8 4 6 10 12 14 16 18 21 25 28 28 27 27 26 26 25 27 30 28 32 32 35 38 34 31 30 28 31 31 29 24 25 27 26 24 23 20 19
26 18 16 15 13 11 11 11 8 7 6 9 11 13 16 18 18 18 17 17 18 19 17 18 20 22 25 25 24 23 22 21 22 21 21 21 21 21 19 16 15 15 15
31 27 22 20 19 17 18 17 14 9 6 3 2 4 5 6 7 8 9 10 12 13 14 15 17 17 16 15 16 16 16 14 16 16 14 13 12 12 12 13 13 12 13
36 32 33 28 22 28 27 24 21 15 15 12 10 7 5 5 6 8 10 9 7 7 9 10 10 11 12 11 9 9 10 9 9 8 7 6 6 5 5 5 6 6 6
38 33 38 35 32 36 36 34 30 22 23 22 20 17 14 11 10 9 8 10 12 11 10 11 12 11 11 11 11 9 7 6 6 6 6 6 6 6 6 6 7 7 8
40 36 39 42 41 45 46 45 32 34 32 30 27 25 24 20 18 16 15 13 12 12 13 12 11 11 12 12 12 13 14 15 14 14 14 14 15 16 17 18 20 22 22
46 45 43 46 49 50 54 50 42 41 45 39 35 34 33 30 28 26 23 22 20 20 19 19 18 19 17 18 22 21 23 24 26 27 28 28 28 28 29 29 31 35 37
50 49 50 50 49 46 58 57 52 50 54 50 44 42 41 38 36 35 32 31 26 29 28 25 27 28 24 22 26 28 30 32 35 39 39 39 39 40 41 42 43 45 48
52 51 50 53 49 44 51 58 58 60 62 62 57 50 47 45 44 43 41 40 36 34 36 34 35 33 36 34 35 36 38 40 42 49 50 49 49 51 51 51 52 53 56
Wind_Direction_500mb
255 241 238 237 243 253 265 276 286 295 305 309 308 304 302 301 299 296 294 292 291 288 285 282 279 283 280 273 266 260 253 251 255 260 254 253 255 257 245 234 235 231 228
237 228 233 239 249 262 273 283 294 304 308 307 305 305 306 305 302 297 295 295 292 291 289 283 281 279 279 277 271 264 254 249 246 249 244 249 250 241 238 229 230 235 237
239 233 236 244 255 267 281 293 300 304 304 305 305 304 303 301 299 297 294 290 289 290 286 280 275 279 284 284 278 270 253 250 245 242 229 226 229 243 228 228 228 226 229
274 241 242 252 268 282 291 300 303 304 306 305 305 306 307 306 305 301 295 293 292 291 282 278 274 280 283 280 277 266 257 250 242 239 233 239 235 193 203 215 217 220 223
286 266 269 279 288 298 303 303 305 307 306 307 308 308 306 306 306 304 300 295 293 292 269 262 266 272 275 265 266 258 252 238 244 237 239 240 256 244 211 196 197 201 204
301 293 291 296 303 301 301 304 306 309 310 310 309 307 309 308 308 310 306 301 296 292 280 261 260 260 272 267 261 255 256 246 241 242 240 239 242 237 233 216 203 204 207
313 299 296 301 298 300 306 308 310 314 313 311 310 312 308 307 310 310 307 305 300 293 281 257 252 251 265 260 261 257 251 250 242 244 239 245 256 254 285 227 215 198 201
323 312 306 301 304 311 313 313 315 320 320 319 318 312 312 312 310 309 305 300 297 293 290 277 262 251 252 264 263 260 260 247 240 232 235 245 249 254 265 273 223 200 194
324 313 307 310 314 318 318 319 324 324 324 324 319 319 318 314 313 309 304 302 301 303 306 292 283 271 260 256 260 259 255 242 239 227 225 239 261 223 219 249 287 248 206
327 320 319 318 319 318 322 327 328 333 332 330 326 328 325 322 319 318 314 310 312 308 296 290 287 281 270 270 259 256 254 249 245 238 239 243 254 252 269 264 267 283 304
333 331 328 325 324 326 329 335 336 336 334 333 329 327 323 323 327 325 320 309 297 286 290 292 287 290 282 272 265 255 252 244 239 230 238 241 237 241 255 234 253 259 288
337 338 333 330 332 334 338 342 348 347 348 341 334 331 328 335 330 326 316 307 305 303 303 301 300 298 285 286 251 229 233 220 220 224 235 244 232 220 224 221 220 233 251
340 339 336 335 340 342 347 358 2 359 2 353 349 348 340 339 332 323 309 315 324 325 316 311 303 296 291 280 259 234 221 223 223 230 240 242 243 234 217 219 225 263 231
341 343 341 341 340 349 7 14 8 12 11 12 15 14 6 359 345 344 335 330 325 314 304 302 300 302 288 281 262 232 228 226 229 230 231 245 241 256 241 234 222 243 247
341 342 343 339 345 360 20 18 15 19 23 28 35 39 42 35 27 21 10 9 5 350 344 345 343 329 320 292 278 238 228 233 219 212 221 220 211 217 221 220 221 225 231
331 338 337 330 339 353 11 22 31 32 43 50 51 54 53 48 45 48 46 39 34 33 37 37 34 33 45 49 51 63 190 200 171 175 181 227 224 196 190 198 195 193 206
323 328 325 307 299 302 16 57 61 66 67 67 66 65 63 59 56 58 58 58 54 53 60 63 71 69 70 77 95 96 104 116 100 100 110 108 102 103 113 132 139 164 164
326 321 306 291 272 233 147 125 100 87 77 75 72 70 69 69 66 65 62 69 71 64 63 61 61 61 64 60 59 63 74 81 88 90 97 110 115 116 118 121 128 142 135
315 310 300 285 260 227 192 178 162 131 106 86 72 65 70 72 68 61 57 53 42 42 46 54 65 75 76 76 73 69 69 72 79 88 93 92 92 91 101 105 107 120 127
310 294 280 270 257 238 221 206 205 203 207 200 118 50 18 11 17 42 58 57 37 37 40 35 34 40 53 71 80 86 90 88 90 94 94 101 102 104 109 118 127 137 145
318 284 277 271 251 243 235 229 225 225 241 244 262 271 283 307 329 342 348 352 4 15 19 26 27 32 35 34 35 44 60 81 90 98 98 99 109 116 132 146 155 166 170
321 297 276 270 258 249 244 240 241 234 246 250 256 261 262 267 272 286 307 319 327 336 350 356 356 2 5 8 11 16 20 18 5 355 351 346 334 324 307 294 288 283 272
324 319 292 273 259 253 251 247 246 246 251 249 249 253 258 261 265 269 275 275 280 293 304 308 310 314 326 331 331 328 327 324 320 313 305 299 297 295 293 290 286 283 279
307 306 303 286 270 259 257 257 248 245 252 253 251 251 253 255 258 262 264 267 274 279 284 292 299 302 311 314 311 313 312 311 308 303 301 300 298 294 292 290 291 292 291
314 306 295 290 283 269 260 258 254 249 253 257 254 254 257 258 260 263 265 269 271 276 279 283 287 291 290 292 295 297 296 296 295 292 291 290 290 289 289 290 290 289 287
311 312 304 291 286 276 263 256 255 252 253 255 257 257 260 262 263 265 266 269 271 270 275 280 284 284 288 289 289 290 291 292 292 289 289 289 290 291 292 291 289 285 284
Wind_Speed_850mb
24 31 38 42 44 43 41 44 48 52 62 70 68 62 55 49 47 46 46 46 46 44 45 50 45 39 47 54 52 52 53 54 48 47 47 53 64 63 65 72 75 93 97
10 20 29 35 36 36 39 43 48 56 63 65 60 56 54 52 52 49 48 47 48 46 43 43 44 41 49 51 51 47 49 51 48 41 42 36 38 60 65 77 81 88 96
9 16 25 29 32 35 37 44 53 61 62 59 55 52 51 50 49 49 49 47 49 42 40 38 36 44 44 47 43 41 45 50 48 44 48 22 32 38 52 67 65 78 88
4 11 18 23 28 33 41 50 58 58 54 50 49 49 52 54 49 47 47 49 47 41 31 29 35 40 43 42 40 40 36 44 48 43 53 64 18 23 25 47 63 66 70
11 16 20 25 31 37 48 53 52 48 45 44 44 46 49 49 49 47 46 45 46 40 34 37 36 39 43 41 41 43 44 39 45 45 48 53 61 65 24 30 50 57 58
19 22 25 31 38 44 45 44 44 41 39 41 42 44 46 48 48 46 46 42 43 41 35 38 39 39 38 37 43 42 43 44 43 50 40 42 53 56 35 33 62 64 60
27 30 34 36 38 37 36 37 38 35 36 38 38 40 41 43 44 43 44 44 41 38 32 32 34 37 33 40 40 43 40 42 37 41 42 45 43 47 18 41 52 61 48
33 31 32 33 32 32 33 33 34 32 33 34 35 35 36 38 39 39 39 39 39 36 32 31 33 38 36 32 36 40 41 41 39 35 37 33 29 38 38 22 47 38 49
34 30 26 28 28 29 29 31 30 31 33 33 32 29 29 31 35 34 34 33 31 30 27 28 32 34 41 44 37 41 45 39 36 39 27 20 19 24 25 38 22 21 31
29 25 24 24 24 25 25 26 29 33 33 31 32 32 30 28 29 32 31 29 23 23 27 30 34 36 39 41 49 46 45 51 38 42 47 46 38 25 21 16 31 13 20
27 23 21 22 22 22 24 25 26 27 27 28 28 28 25 23 25 27 28 27 22 23 26 31 32 32 34 36 33 36 39 48 41 35 37 41 46 43 45 17 29 32 17
27 25 23 21 19 18 19 21 23 24 27 27 23 21 21 17 19 19 23 25 24 24 29 28 29 32 28 23 23 27 34 30 29 29 32 33 28 29 31 31 26 33 24
29 26 22 20 16 14 15 16 18 22 26 23 19 17 18 17 16 15 18 20 23 27 32 33 31 28 25 24 24 25 32 33 29 29 32 32 30 29 31 35 26 20 30
31 26 21 17 12 10 11 13 18 24 26 22 18 16 17 15 14 15 15 16 18 20 22 21 20 20 18 18 21 18 23 27 30 32 32 26 29 24 23 26 26 31 38
30 25 19 13 9 7 8 12 17 21 22 21 20 22 22 20 18 17 16 17 17 19 19 18 16 14 11 9 9 12 21 25 26 26 24 24 22 20 22 31 34 40 46
27 23 19 12 7 4 6 9 13 15 18 21 22 25 28 29 27 26 24 23 22 21 20 18 19 16 16 14 10 7 6 13 14 18 17 11 24 26 27 29 32 29 24
17 17 16 11 6 4 3 6 11 16 19 22 24 27 28 28 28 28 28 28 30 29 29 30 30 31 28 24 28 28 26 26 31 28 30 29 26 25 23 19 15 16 23
17 15 14 13 8 4 6 10 12 14 16 18 21 25 28 28 27 27 26 26 25 27 30 28 32 32 35 38 34 31 30 28 31 31 29 24 25 27 26 24 23 20 19
26 18 16 15 13 11 11 11 8 7 6 9 11 13 16 18 18 18 17 17 18 19 17 18 20 22 25 25 24 23 22 21 22 21 21 21 21 21 19 16 15 15 15
31 27 22 20 19 17 18 17 14 9 6 3 2 4 5 6 7 8 9 10 12 13 14 15 17 17 16 15 16 16 16 14 16 16 14 13 12 12 12 13 13 12 13
36 32 33 28 22 28 27 24 21 15 15 12 10 7 5 5 6 8 10 9 7 7 9 10 10 11 12 11 9 9 10 9 9 8 7 6 6 5 5 5 6 6 6
38 33 38 35 32 36 36 34 30 22 23 22 20 17 14 11 10 9 8 10 12 11 10 11 12 11 11 11 11 9 7 6 6 6 6 6 6 6 6 6 7 7 8
40 36 39 42 41 45 46 45 32 34 32 30 27 25 24 20 18 16 15 13 12 12 13 12 11 11 12 12 12 13 14 15 14 14 14 14 15 16 17 18 20 22 22
46 45 43 46 49 50 54 50 42 41 45 39 35 34 33 30 28 26 23 22 20 20 19 19 18 19 17 18 22 21 23 24 26 27 28 28 28 28 29 29 31 35 37
50 49 50 50 49 46 58 57 52 50 54 50 44 42 41 38 36 35 32 31 26 29 28 25 27 28 24 22 26 28 30 32 35 39 39 39 39 40 41 42 43 45 48
52 51 50 53 49 44 51 58 58 60 62 62 57 50 47 45 44 43 41 40 36 34 36 34 35 33 36 34 35 36 38 40 42 49 50 49 49 51 51 51 52 53 56
Wind_Direction_850mb
255 241 238 237 243 253 265 276 286 295 305 309 308 304 302 301 299 296 294 292 291 288 285 282 279 283 280 273 266 260 253 251 255 260 254 253 255 257 245 234 235 231 228
237 228 233 239 249 262 273 283 294 304 308 307 305 305 306 305 302 297 295 295 292 291 289 283 281 279 279 277 271 264 254 249 246 249 244 249 250 241 238 229 230 235 237
239 233 236 244 255 267 281 293 300 304 304 305 305 304 303 301 299 297 294 290 289 290 286 280 275 279 284 284 278 270 253 250 245 242 229 226 229 243 228 228 228 226 229
274 241 242 252 268 282 291 300 303 304 306 305 305 306 307 306 305 301 295 293 292 291 282 278 274 280 283 280 277 266 257 250 242 239 233 239 235 193 203 215 217 220 223
286 266 269 279 288 298 303 303 305 307 306 307 308 308 306 306 306 304 300 295 293 292 269 262 266 272 275 265 266 258 252 238 244 237 239 240 256 244 211 196 197 201 204
301 293 291 296 303 301 301 304 306 309 310 310 309 307 309 308 308 310 306 301 296 292 280 261 260 260 272 267 261 255 256 246 241 242 240 239 242 237 233 216 203 204 207
313 299 296 301 298 300 306 308 310 314 313 311 310 312 308 307 310 310 307 305 300 293 281 257 252 251 265 260 261 257 251 250 242 244 239 245 256 254 285 227 215 198 201
323 312 306 301 304 311 313 313 315 320 320 319 318 312 312 312 310 309 305 300 297 293 290 277 262 251 252 264 263 260 260 247 240 232 235 245 249 254 265 273 223 200 194
324 313 307 310 314 318 318 319 324 324 324 324 319 319 318 314 313 309 304 302 301 303 306 292 283 271 260 256 260 259 255 242 239 227 225 239 261 223 219 249 287 248 206
327 320 319 318 319 318 322 327 328 333 332 330 326 328 325 322 319 318 314 310 312 308 296 290 287 281 270 270 259 256 254 249 245 238 239 243 254 252 269 264 267 283 304
333 331 328 325 324 326 329 335 336 336 334 333 329 327 323 323 327 325 320 309 297 286 290 292 287 290 282 272 265 255 252 244 239 230 238 241 237 241 255 234 253 259 288
337 338 333 330 332 334 338 342 348 347 348 341 334 331 328 335 330 326 316 307 305 303 303 301 300 298 285 286 251 229 233 220 220 224 235 244 232 220 224 221 220 233 251
340 339 336 335 340 342 347 358 2 359 2 353 349 348 340 339 332 323 309 315 324 325 316 311 303 296 291 280 259 234 221 223 223 230 240 242 243 234 217 219 225 263 231
341 343 341 341 340 349 7 14 8 12 11 12 15 14 6 359 345 344 335 330 325 314 304 302 300 302 288 281 262 232 228 226 229 230 231 245 241 256 241 234 222 243 247
341 342 343 339 345 360 20 18 15 19 23 28 35 39 42 35 27 21 10 9 5 350 344 345 343 329 320 292 278 238 228 233 219 212 221 220 211 217 221 220 221 225 231
331 338 337 330 339 353 11 22 31 32 43 50 51 54 53 48 45 48 46 39 34 33 37 37 34 33 45 49 51 63 190 200 171 175 181 227 224 196 190 198 195 193 206
323 328 325 307 299 302 16 57 61 66 67 67 66 65 63 59 56 58 58 58 54 53 60 63 71 69 70 77 95 96 104 116 100 100 110 108 102 103 113 132 139 164 164
326 321 306 291 272 233 147 125 100 87 77 75 72 70 69 69 66 65 62 69 71 64 63 61 61 61 64 60 59 63 74 81 88 90 97 110 115 116 118 121 128 142 135
315 310 300 285 260 227 192 178 162 131 106 86 72 65 70 72 68 61 57 53 42 42 46 54 65 75 76 76 73 69 69 72 79 88 93 92 92 91 101 105 107 120 127
310 294 280 270 257 238 221 206 205 203 207 200 118 50 18 11 17 42 58 57 37 37 40 35 34 40 53 71 80 86 90 88 90 94 94 101 102 104 109 118 127 137 145
318 284 277 271 251 243 235 229 225 225 241 244 262 271 283 307 329 342 348 352 4 15 19 26 27 32 35 34 35 44 60 81 90 98 98 99 109 116 132 146 155 166 170
321 297 276 270 258 249 244 240 241 234 246 250 256 261 262 267 272 286 307 319 327 336 350 356 356 2 5 8 11 16 20 18 5 355 351 346 334 324 307 294 288 283 272
324 319 292 273 259 253 251 247 246 246 251 249 249 253 258 261 265 269 275 275 280 293 304 308 310 314 326 331 331 328 327 324 320 313 305 299 297 295 293 290 286 283 279
307 306 303 286 270 259 257 257 248 245 252 253 251 251 253 255 258 262 264 267 274 279 284 292 299 302 311 314 311 313 312 311 308 303 301 300 298 294 292 290 291 292 291
314 306 295 290 283 269 260 258 254 249 253 257 254 254 257 258 260 263 265 269 271 276 279 283 287 291 290 292 295 297 296 296 295 292 291 290 290 289 289 290 290 289 287
311 312 304 291 286 276 263 256 255 252 253 255 257 257 260 262 263 265 266 269 271 270 275 280 284 284 288 289 289 290 291 292 292 289 289 289 290 291 292 291 289 285 284